This demonstration page uses our WeatherBlox Daily Observations layout. Learn more.

Left ArrowRight Arrow

39.08367, -84.50855

Hourly Observations for February 16, 2016

Temp ( °F °C ) Dew Point ( °F °C ) Humidity (%) Winds ( mph kmh ) Pressure ( in mb ) Visibility ( mi km ) Precip ( " mm )
12:12 am 00:12 Cloudy with Light Wintry Mix 32 undefined 32 undefined 100 100 N N/A 29.80 1009 1 1 N/A
12:53 am 00:53 Cloudy with Light Rain 33 0.6 33 0.6 100 100 N N/A 29.78 1009 1 1 0.02 0.51
1:53 am 01:53 Cloudy with Light Rain 33 0.6 33 0.6 100 100 N N/A 29.78 1008 1 2 0.03 0.76
2:03 am 02:03 Cloudy with Light Rain 34 1 34 1 100 100 N N/A 29.80 1009 1 1 N/A
2:10 am 02:10 Cloudy with Light Rain 32 undefined 32 undefined 100 100 N N/A 29.80 1009 1 1 N/A
2:16 am 02:16 Cloudy with Light Wintry Mix 32 undefined 32 undefined 100 100 N N/A 29.80 1009 1 2 N/A
2:29 am 02:29 Cloudy with Light Rain 34 1.1 34 1.1 100 100 N N/A 29.80 1009 3 5 0.01 0.25
2:53 am 02:53 Cloudy with Light Rain 34 1.1 34 1.1 100 100 WNW 6 9 29.78 1009 5 8 0.01 0.25
3:53 am 03:53 Cloudy with Mist and Fog 34 1.1 34 1.1 100 100 N N/A 29.77 1008 4 6 N/A
4:50 am 04:50 Cloudy with Mist and Fog 34 1 34 1 100 100 NW 3 6 29.77 1008 5 8 N/A
4:53 am 04:53 Cloudy with Mist and Fog 34 1.1 33 0.6 97 97 NW 3 6 29.76 1008 5 8 N/A
5:53 am 05:53 Cloudy 34 1.1 32 undefined 92 92 VRB 7 11 29.78 1009 7 11 N/A
6:53 am 06:53 Cloudy with Mist and Fog 33 0.6 32 undefined 96 96 WNW 7 11 29.80 1009 6 10 N/A
7:53 am 07:53 Cloudy with Mist and Fog 33 0.6 31 -0.6 92 92 W 8 13 29.82 1010 6 10 N/A
8:53 am 08:53 Cloudy 33 0.6 29 -1.7 85 85 W 9 15 29.86 1011 7 11 N/A
9:53 am 09:53 Cloudy 33 0.6 26 -3.3 75 75 WNW 9 15 29.87 1012 10 16 N/A
10:53 am 10:53 Cloudy 34 1.1 27 -2.8 76 76 W 6 9 29.88 1012 10 16 N/A
11:53 am 11:53 Cloudy 34 1.1 28 -2.2 79 79 W 3 6 29.87 1012 10 16 N/A
12:53 pm 12:53 Cloudy 36 2.2 28 -2.2 73 73 W 6 9 29.84 1011 10 16 N/A
1:53 pm 13:53 Cloudy 36 2.2 29 -1.7 76 76 N N/A 29.82 1010 10 16 N/A
2:53 pm 14:53 Cloudy 38 3.3 29 -1.7 70 70 W 10 17 29.81 1010 10 16 N/A
3:53 pm 15:53 Mostly Cloudy 38 3.3 28 -2.2 68 68 W 8 13 29.82 1010 10 16 N/A
4:53 pm 16:53 Partly Cloudy 38 3.3 28 -2.2 68 68 W 6 9 29.84 1010 10 16 N/A
5:53 pm 17:53 Cloudy 38 3.3 28 -2.2 68 68 NW 7 11 29.87 1012 10 16 N/A
6:53 pm 18:53 Mostly Clear 37 2.8 27 -2.8 67 67 N N/A 29.91 1013 10 16 N/A
7:53 pm 19:53 Mostly Clear 32 undefined 27 -2.8 82 82 NNE 3 6 29.93 1014 10 16 N/A
8:43 pm 20:43 Cloudy 32 undefined 30 -1.1 92 92 N N/A 29.94 1014 10 16 N/A
8:53 pm 20:53 Cloudy 32 undefined 29 -1.7 88 88 N N/A 29.95 1014 9 14 N/A
9:38 pm 21:38 Mostly Clear 30 -1 28 -2 93 93 N N/A 30.00 1016 7 11 N/A
9:53 pm 21:53 Clear with Mist and Fog 30 -1.1 28 -2.2 92 92 N N/A 29.97 1015 6 10 N/A
10:53 pm 22:53 Clear with Mist and Fog 27 -2.8 27 -2.8 100 100 N N/A 29.98 1015 4 6 N/A
11:09 pm 23:09 Clear with Mist and Fog 27 -2.8 26 -3.3 96 96 N N/A 30.00 1016 3 4 N/A
11:17 pm 23:17 Clear with Mist and Fog 28 -2 27 -3 93 93 N N/A 30.00 1016 4 6 N/A
11:45 pm 23:45 Clear with Mist and Fog 25 -3.9 25 -3.9 100 100 N N/A 30.00 1016 2 3 N/A
11:53 pm 23:53 Partly Cloudy with Mist and Fog 26 -3.3 25 -3.9 96 96 N N/A 29.99 1016 1 1 N/A

Powered by AerisWeather